EW6308 Weather Reports


Display with metric or nautical units.
time (UTC)temp
F
wind
direction
speed
MPH
gust
MPH
rain 1hr
in
rain 24hr
in
rain mn
in
humidity
%
barometer
mb
20260904032403 78 172 2.0 9.0 0.00 0.00 0.00 87 1015.3
20260904031858 78 151 0.0 0.0 0.00 0.00 0.00 87 1015.4
20260904031353 78 129 2.0 6.0 0.00 0.00 0.00 87 1015.2
20260904030849 79 186 2.0 3.0 0.00 0.00 0.00 87 1015.4
20260904030345 79 255 2.0 6.0 0.00 0.00 0.00 87 1015.3
20260904025840 79 90 2.0 4.0 0.00 0.00 0.00 87 1015.4
20260904025336 79 113 2.0 7.0 0.00 0.00 0.00 87 1015.2
20260904024835 79 223 1.0 2.0 0.00 0.00 0.00 87 1015.1
20260904024331 79 233 1.0 3.0 0.00 0.00 0.00 87 1015.1
20260904023827 79 213 3.0 4.0 0.00 0.00 0.00 87 1015.0
20260904023323 79 138 1.0 2.0 0.00 0.00 0.00 87 1014.9
20260904022822 79 216 2.0 3.0 0.00 0.00 0.00 86 1014.8
20260904022319 79 220 0.0 3.0 0.00 0.00 0.00 86 1014.7
20260904021816 80 126 4.0 6.0 0.00 0.00 0.00 86 1014.8
20260904021315 80 64 2.0 4.0 0.00 0.00 0.00 86 1014.5
20260904020811 80 125 2.0 3.0 0.00 0.00 0.00 86 1014.4
20260904020306 80 85 1.0 3.0 0.00 0.00 0.00 86 1014.2
20260904015804 80 136 1.0 3.0 0.00 0.00 0.00 86 1014.2
20260904015300 80 252 2.0 3.0 0.00 0.00 0.00 85 1014.2
20260904014758 80 113 0.0 3.0 0.00 0.00 0.00 85 1014.1
20260904014254 80 219 1.0 6.0 0.00 0.00 0.00 85 1014.0
20260904013749 80 86 3.0 3.0 0.00 0.00 0.00 84 1014.0
20260904013245 80 78 1.0 4.0 0.00 0.00 0.00 84 1014.0
20260904012741 81 167 1.0 2.0 0.00 0.00 0.00 83 1014.1
20260904012241 81 70 2.0 4.0 0.00 0.00 0.00 83 1014.0
20260904011740 81 150 1.0 2.0 0.00 0.00 0.00 83 1013.9
20260904011235 81 144 4.0 7.0 0.00 0.00 0.00 82 1013.7
20260904010730 81 200 2.0 4.0 0.00 0.00 0.00 82 1013.6
20260904010227 81 167 0.0 3.0 0.00 0.00 0.00 81 1013.7
20260904005722 82 48 2.0 4.0 0.00 0.00 0.00 81 1013.7
20260904005218 82 202 2.0 3.0 0.00 0.00 0.00 80 1013.7
20260904004718 82 136 1.0 7.0 0.00 0.00 0.00 80 1013.6
20260904004213 82 215 2.0 7.0 0.00 0.00 0.00 80 1013.9
20260904003702 82 158 4.0 4.0 0.00 0.00 0.00 79 1013.8
20260904003159 82 198 2.0 8.0 0.00 0.00 0.00 79 1013.9
20260904002654 82 235 2.0 10.0 0.00 0.00 0.00 78 1013.8
20260904002149 83 187 7.0 11.0 0.00 0.00 0.00 78 1013.8
20260904001644 83 145 2.0 10.0 0.00 0.00 0.00 78 1013.8
20260904001143 83 137 2.0 7.0 0.00 0.00 0.00 78 1013.7
20260904000639 83 175 5.0 10.0 0.00 0.00 0.00 77 1013.8
20260904000134 83 174 5.0 8.0 0.00 0.00 0.00 77 1013.9
20260903235633 84 135 4.0 11.0 0.00 0.00 0.00 76 1013.8
20260903235130 83 203 4.0 4.0 0.00 0.00 0.00 77 1013.8
20260903234624 84 122 9.0 11.0 0.00 0.00 0.00 76 1013.7
20260903234120 84 104 6.0 13.0 0.00 0.00 0.00 75 1013.7
20260903233616 84 106 4.0 9.0 0.00 0.00 0.00 74 1013.8
20260903233112 85 215 5.0 10.0 0.00 0.00 0.00 74 1013.7
20260903232606 85 146 6.0 11.0 0.00 0.00 0.00 72 1013.7
20260903232102 85 180 6.0 9.0 0.00 0.00 0.00 72 1013.6
20260903231557 85 156 3.0 11.0 0.00 0.00 0.00 71 1013.6
20260903231056 85 171 5.0 10.0 0.00 0.00 0.00 71 1013.6
20260903230553 84 101 2.0 10.0 0.00 0.00 0.00 71 1013.5
20260903230051 85 215 9.0 11.0 0.00 0.00 0.00 70 1013.7
20260903225549 85 180 8.0 9.0 0.00 0.00 0.00 70 1013.6
20260903225045 85 183 3.0 6.0 0.00 0.00 0.00 70 1013.8
20260903224541 85 95 3.0 8.0 0.00 0.00 0.00 70 1013.8
20260903224037 85 217 7.0 10.0 0.00 0.00 0.00 69 1013.7
20260903223536 85 111 4.0 9.0 0.00 0.00 0.00 69 1013.6
20260903223036 85 131 4.0 7.0 0.00 0.00 0.00 70 1013.8
20260903222531 85 114 4.0 9.0 0.00 0.00 0.00 69 1013.8
20260903222029 85 165 2.0 6.0 0.00 0.00 0.00 69 1013.9
20260903221525 85 102 2.0 8.0 0.00 0.00 0.00 68 1013.8
20260903221022 86 222 1.0 3.0 0.00 0.00 0.00 68 1013.6
20260903220522 86 248 2.0 8.0 0.00 0.00 0.00 67 1013.6
20260903220021 86 164 3.0 4.0 0.00 0.00 0.00 66 1013.7
20260903215516 86 206 3.0 10.0 0.00 0.00 0.00 67 1013.7
20260903215015 86 177 6.0 14.0 0.00 0.00 0.00 67 1013.6
20260903214516 87 125 5.0 9.0 0.00 0.00 0.00 67 1013.5
20260903214015 87 118 5.0 8.0 0.00 0.00 0.00 66 1013.8
20260903213511 88 129 6.0 11.0 0.00 0.00 0.00 65 1013.7
20260903213007 87 187 4.0 9.0 0.00 0.00 0.00 66 1013.9
20260903212503 86 138 7.0 10.0 0.00 0.00 0.00 69 1013.9
20260903212002 87 78 5.0 11.0 0.00 0.00 0.00 69 1013.9
20260903211458 88 197 3.0 9.0 0.00 0.00 0.00 69 1013.7
20260903210954 88 188 3.0 7.0 0.00 0.00 0.00 69 1014.0
20260903210454 87 129 6.0 9.0 0.00 0.00 0.00 71 1014.1
20260903205949 87 137 6.0 9.0 0.00 0.00 0.00 72 1014.2
20260903205444 87 85 6.0 10.0 0.00 0.00 0.00 71 1014.0
20260903204938 87 186 1.0 6.0 0.00 0.00 0.00 71 1014.1
20260903204434 87 216 3.0 7.0 0.00 0.00 0.00 70 1014.1
20260903203930 87 290 1.0 6.0 0.00 0.00 0.00 70 1013.9
20260903203425 88 219 4.0 10.0 0.00 0.00 0.00 69 1014.1
20260903202925 87 147 0.0 4.0 0.00 0.00 0.00 71 1014.2
20260903202421 87 175 1.0 6.0 0.00 0.00 0.00 71 1014.4
20260903201921 87 137 2.0 4.0 0.00 0.00 0.00 70 1014.6
20260903201416 88 106 2.0 8.0 0.00 0.00 0.00 69 1014.5
20260903200915 89 163 6.0 8.0 0.00 0.00 0.00 66 1014.3
20260903200410 88 191 3.0 4.0 0.00 0.00 0.00 69 1014.4
20260903195905 88 150 2.0 6.0 0.00 0.00 0.00 69 1014.6
20260903195402 88 85 1.0 4.0 0.00 0.00 0.00 69 1014.5
20260903194855 87 214 8.0 9.0 0.00 0.00 0.00 70 1014.7
20260903194351 85 133 2.0 7.0 0.00 0.00 0.00 72 1014.7
20260903193847 85 213 6.0 8.0 0.00 0.00 0.00 73 1014.7
20260903193343 85 67 6.0 9.0 0.00 0.00 0.00 73 1014.9
20260903192838 85 191 4.0 13.0 0.00 0.00 0.00 73 1015.0
20260903192334 86 36 4.0 8.0 0.00 0.00 0.00 72 1014.8
20260903191830 85 192 2.0 6.0 0.00 0.00 0.00 74 1014.9
20260903191326 85 159 5.0 10.0 0.00 0.00 0.00 75 1015.0
20260903190825 84 181 5.0 10.0 0.00 0.00 0.00 77 1015.4
20260903190320 84 148 2.0 6.0 0.00 0.00 0.00 79 1015.5
20260903185819 83 250 0.0 6.0 0.00 0.00 0.00 80 1015.6
20260903185315 83 41 2.0 7.0 0.00 0.00 0.00 82 1015.5
20260903184811 82 196 6.0 8.0 0.00 0.00 0.00 82 1015.8
20260903184307 82 182 4.0 7.0 0.00 0.00 0.00 83 1016.0
20260903183802 81 173 4.0 7.0 0.00 0.00 0.00 84 1016.1
20260903183256 81 232 6.0 13.0 0.00 0.00 0.00 84 1016.0
20260903182755 81 169 2.0 7.0 0.00 0.00 0.00 85 1016.1
20260903182250 81 185 4.0 8.0 0.00 0.00 0.00 85 1016.0
20260903181749 81 211 3.0 6.0 0.00 0.00 0.00 86 1016.3
20260903181244 81 102 2.0 9.0 0.00 0.00 0.00 86 1016.4
20260903180739 81 207 5.0 7.0 0.00 0.00 0.00 86 1016.5
20260903180239 81 88 2.0 7.0 0.00 0.00 0.00 87 1016.4
20260903175738 81 163 6.0 9.0 0.00 0.00 0.00 87 1016.5
20260903175238 81 158 1.0 8.0 0.00 0.00 0.00 88 1016.5
20260903174737 81 109 3.0 6.0 0.00 0.00 0.00 88 1016.7
20260903174233 80 190 2.0 7.0 0.00 0.00 0.00 88 1017.0
20260903173728 80 137 2.0 6.0 0.00 0.00 0.00 89 1017.0
20260903173224 80 123 4.0 6.0 0.00 0.00 0.00 89 1017.1
20260903172723 80 85 2.0 7.0 0.00 0.00 0.00 89 1017.1
20260903172218 80 122 4.0 7.0 0.00 0.00 0.00 89 1017.3
20260903171714 80 146 4.0 10.0 0.00 0.00 0.00 89 1017.0
20260903171210 80 83 4.0 6.0 0.00 0.00 0.00 90 1017.3
20260903170708 80 109 2.0 7.0 0.00 0.00 0.00 90 1017.3
20260903170204 80 122 4.0 6.0 0.00 0.00 0.00 90 1017.4
20260903165701 80 233 2.0 6.0 0.00 0.00 0.00 90 1017.5
20260903165157 80 205 1.0 4.0 0.00 0.00 0.00 89 1017.4
20260903164651 80 134 3.0 8.0 0.00 0.00 0.00 89 1017.1
20260903164147 80 115 4.0 6.0 0.00 0.00 0.00 88 1017.4
20260903163647 81 87 3.0 11.0 0.00 0.00 0.00 87 1017.3
20260903163143 81 82 2.0 6.0 0.00 0.00 0.00 87 1017.2
20260903162639 81 123 6.0 10.0 0.00 0.00 0.00 87 1017.0
20260903162135 81 217 3.0 9.0 0.00 0.00 0.00 87 1017.1
20260903161630 81 174 3.0 7.0 0.00 0.00 0.00 86 1016.9
20260903161126 81 163 2.0 2.0 0.00 0.00 0.00 87 1016.6
20260903160621 81 217 4.0 4.0 0.00 0.00 0.00 86 1016.7
20260903160115 81 112 2.0 4.0 0.00 0.00 0.00 86 1016.7
20260903155614 81 135 2.0 4.0 0.00 0.00 0.00 85 1016.5
20260903155109 81 196 2.0 3.0 0.00 0.00 0.00 85 1016.6
20260903154605 82 141 6.0 8.0 0.00 0.00 0.00 84 1016.6
20260903154101 82 92 4.0 8.0 0.00 0.00 0.00 84 1016.5
20260903153556 81 231 3.0 3.0 0.00 0.00 0.00 84 1016.4
20260903153052 81 67 2.0 7.0 0.00 0.00 0.00 84 1016.4
20260903152548 81 79 3.0 8.0 0.00 0.00 0.00 85 1016.3
20260903152044 81 102 2.0 7.0 0.00 0.00 0.00 86 1016.2
20260903151543 80 203 3.0 6.0 0.00 0.00 0.00 87 1016.2
20260903151039 80 178 0.0 1.0 0.00 0.00 0.00 88 1016.3
20260903150538 80 159 1.0 3.0 0.00 0.00 0.00 89 1016.1
20260903150034 80 226 1.0 6.0 0.00 0.00 0.00 88 1016.2
20260903145533 81 134 2.0 7.0 0.00 0.00 0.00 87 1016.3
20260903145029 81 104 4.0 6.0 0.00 0.00 0.00 85 1016.2
20260903144527 81 212 2.0 4.0 0.00 0.00 0.00 85 1016.1
20260903144024 81 75 1.0 3.0 0.00 0.00 0.00 85 1016.3
20260903143520 81 161 2.0 4.0 0.00 0.00 0.00 85 1016.0
20260903143015 80 133 2.0 11.0 0.00 0.00 0.00 86 1016.0
20260903142510 80 140 3.0 6.0 0.00 0.00 0.00 86 1016.0
20260903142007 80 210 3.0 4.0 0.00 0.00 0.00 87 1016.0
20260903141503 80 201 5.0 6.0 0.00 0.00 0.00 87 1015.9
20260903140958 80 171 4.0 7.0 0.00 0.00 0.00 87 1016.0
20260903140453 80 149 3.0 6.0 0.00 0.00 0.00 88 1015.9
20260903135948 80 201 3.0 7.0 0.00 0.00 0.00 88 1016.0
20260903135444 80 205 4.0 8.0 0.00 0.00 0.00 88 1016.0
20260903134944 79 221 2.0 4.0 0.00 0.00 0.00 88 1015.6
20260903134443 79 251 2.0 4.0 0.00 0.00 0.00 88 1015.8
20260903133940 80 107 2.0 4.0 0.00 0.00 0.00 87 1016.1
20260903133437 80 119 2.0 2.0 0.00 0.00 0.00 87 1016.1
20260903132932 79 329 1.0 1.0 0.00 0.00 0.00 86 1016.1
20260903132428 79 92 2.0 4.0 0.00 0.00 0.00 86 1015.9
20260903131927 79 172 1.0 2.0 0.00 0.00 0.00 86 1015.9
20260903131422 79 197 2.0 2.0 0.00 0.00 0.00 86 1015.6
20260903130921 79 107 2.0 4.0 0.00 0.00 0.00 86 1015.7
20260903130416 79 185 2.0 4.0 0.00 0.00 0.00 85 1015.6
20260903125915 79 229 0.0 2.0 0.00 0.00 0.00 85 1015.8
20260903125410 79 190 2.0 3.0 0.00 0.00 0.00 85 1015.7
20260903124909 79 247 1.0 2.0 0.00 0.00 0.00 85 1015.5
20260903124405 79 72 1.0 3.0 0.00 0.00 0.00 86 1015.6
20260903123903 79 171 1.0 1.0 0.00 0.00 0.00 85 1015.4
20260903123358 79 120 2.0 2.0 0.00 0.00 0.00 85 1015.3
20260903122857 79 202 4.0 4.0 0.00 0.00 0.00 85 1015.4
20260903122352 79 247 0.0 2.0 0.00 0.00 0.00 85 1015.5
20260903121851 79 234 0.0 2.0 0.00 0.00 0.00 85 1015.4
20260903121346 78 226 1.0 2.0 0.00 0.00 0.00 85 1015.3
20260903120842 78 217 0.0 1.0 0.00 0.00 0.00 84 1015.0
20260903120340 78 218 0.0 1.0 0.00 0.00 0.00 84 1015.2
20260903115839 78 188 1.0 2.0 0.00 0.00 0.00 84 1015.3
20260903115334 78 191 2.0 3.0 0.00 0.00 0.00 84 1015.0
20260903114834 78 162 3.0 4.0 0.00 0.00 0.00 84 1014.9
20260903114330 78 193 2.0 6.0 0.00 0.00 0.00 84 1015.0
20260903113825 78 227 2.0 2.0 0.00 0.00 0.00 84 1015.1
20260903113320 78 162 5.0 6.0 0.00 0.00 0.00 83 1014.8
20260903112816 78 226 3.0 7.0 0.00 0.00 0.00 83 1014.8
20260903112312 78 208 3.0 6.0 0.00 0.00 0.00 83 1014.8
20260903111810 78 223 2.0 6.0 0.00 0.00 0.00 83 1014.7
20260903111306 78 169 2.0 4.0 0.00 0.00 0.00 82 1014.8
20260903110802 78 167 5.0 7.0 0.00 0.00 0.00 82 1014.7
20260903110257 79 251 1.0 4.0 0.00 0.00 0.00 82 1014.8
20260903105757 79 193 2.0 6.0 0.00 0.00 0.00 81 1014.7
20260903105252 79 223 3.0 4.0 0.00 0.00 0.00 81 1015.0
20260903104752 79 194 0.0 4.0 0.00 0.00 0.00 81 1015.0
20260903104247 79 180 3.0 3.0 0.00 0.00 0.00 81 1014.9
20260903103742 79 227 0.0 2.0 0.00 0.00 0.00 81 1014.9
20260903103239 79 214 4.0 7.0 0.00 0.00 0.00 81 1014.9
20260903102735 79 240 2.0 3.0 0.00 0.00 0.00 81 1015.0
20260903102234 79 156 3.0 7.0 0.00 0.00 0.00 80 1014.9
20260903101732 79 221 3.0 4.0 0.00 0.00 0.00 80 1015.0
20260903101229 79 183 2.0 4.0 0.00 0.00 0.00 80 1015.0
20260903100724 79 111 3.0 4.0 0.00 0.00 0.00 80 1014.9
20260903100223 79 164 4.0 7.0 0.00 0.00 0.00 80 1015.0
20260903095720 79 216 6.0 9.0 0.00 0.00 0.00 80 1014.8
20260903095216 79 233 1.0 4.0 0.00 0.00 0.00 80 1014.7
20260903094710 79 198 2.0 6.0 0.00 0.00 0.00 80 1014.8
20260903094206 79 189 3.0 4.0 0.00 0.00 0.00 80 1014.9
20260903093702 79 214 4.0 8.0 0.00 0.00 0.00 80 1014.9
20260903093157 79 189 3.0 6.0 0.00 0.00 0.00 80 1014.7
20260903092656 79 176 6.0 9.0 0.00 0.00 0.00 80 1014.7
20260903092151 79 192 2.0 6.0 0.00 0.00 0.00 80 1014.9
20260903091650 79 146 4.0 6.0 0.00 0.00 0.00 80 1014.9
20260903091150 79 187 2.0 6.0 0.00 0.00 0.00 80 1015.0
20260903090646 79 198 3.0 4.0 0.00 0.00 0.00 80 1015.1
20260903090144 79 201 2.0 6.0 0.00 0.00 0.00 79 1015.0
20260903085643 79 194 4.0 8.0 0.00 0.00 0.00 80 1015.2
20260903085139 79 200 4.0 7.0 0.00 0.00 0.00 80 1015.0
20260903084636 79 206 4.0 8.0 0.00 0.00 0.00 79 1015.0
20260903084131 79 241 4.0 9.0 0.00 0.00 0.00 79 1015.0
20260903083627 79 194 3.0 9.0 0.00 0.00 0.00 79 1015.0
20260903083122 79 231 1.0 2.0 0.00 0.00 0.00 80 1015.1
20260903082621 79 196 2.0 7.0 0.00 0.00 0.00 80 1015.1
20260903082118 79 242 6.0 8.0 0.00 0.00 0.00 80 1015.0
20260903081612 79 192 4.0 6.0 0.00 0.00 0.00 80 1015.2
20260903081108 79 146 5.0 6.0 0.00 0.00 0.00 80 1015.2
20260903080604 79 206 4.0 6.0 0.00 0.00 0.00 80 1015.1
20260903075555 79 197 2.0 3.0 0.00 0.00 0.00 80 1015.2
20260903075051 79 208 2.0 3.0 0.00 0.00 0.00 81 1015.2
20260903074550 79 195 3.0 6.0 0.00 0.00 0.00 81 1015.1
20260903074049 79 193 6.0 7.0 0.00 0.00 0.00 81 1015.1
20260903073545 79 178 5.0 6.0 0.00 0.00 0.00 80 1015.1
20260903073041 79 137 3.0 8.0 0.00 0.00 0.00 80 1015.1
20260903072536 79 203 4.0 9.0 0.00 0.00 0.00 80 1014.9
20260903072033 79 187 5.0 6.0 0.00 0.00 0.00 80 1015.0
20260903071529 79 225 3.0 7.0 0.00 0.00 0.00 80 1014.8
20260903071024 79 183 7.0 9.0 0.00 0.00 0.00 80 1014.9
20260903070524 79 127 4.0 13.0 0.00 0.00 0.00 80 1014.8
20260903070020 80 164 2.0 7.0 0.00 0.00 0.00 80 1014.7
20260903065519 80 214 4.0 6.0 0.00 0.00 0.00 80 1015.0
20260903065019 80 210 3.0 9.0 0.00 0.00 0.00 80 1015.0
20260903064519 80 125 2.0 10.0 0.00 0.00 0.00 80 1015.1
20260903064015 80 170 3.0 8.0 0.00 0.00 0.00 80 1015.2
20260903063510 80 197 2.0 6.0 0.00 0.00 0.00 80 1015.1
20260903063005 80 165 6.0 8.0 0.00 0.00 0.00 80 1015.1
20260903062500 80 213 3.0 6.0 0.00 0.00 0.00 79 1014.9
20260903061956 80 197 2.0 6.0 0.00 0.00 0.00 79 1015.2
20260903061456 80 221 2.0 3.0 0.00 0.00 0.00 79 1015.3
20260903060952 80 211 2.0 4.0 0.00 0.00 0.00 78 1015.3
20260903060451 80 126 4.0 7.0 0.00 0.00 0.00 78 1015.4
20260903055951 80 205 6.0 7.0 0.00 0.00 0.00 78 1015.2
20260903055449 80 205 2.0 8.0 0.00 0.00 0.00 78 1015.1
20260903054948 80 197 3.0 7.0 0.00 0.00 0.00 77 1015.3
20260903054443 80 194 3.0 4.0 0.00 0.00 0.00 77 1015.5
20260903053939 81 190 3.0 6.0 0.00 0.00 0.00 77 1015.2
20260903053438 81 200 4.0 6.0 0.00 0.00 0.00 77 1015.3
20260903052935 81 204 3.0 4.0 0.00 0.00 0.00 76 1015.2
20260903052431 81 192 2.0 2.0 0.00 0.00 0.00 76 1015.2
20260903051926 81 141 2.0 3.0 0.00 0.00 0.00 76 1015.3
20260903051422 81 180 1.0 3.0 0.00 0.00 0.00 76 1015.5
20260903050917 81 197 1.0 2.0 0.00 0.00 0.00 76 1015.3
20260903050416 81 238 1.0 2.0 0.00 0.00 0.00 76 1015.3
20260903045910 81 127 1.0 3.0 0.00 0.00 0.00 75 1015.3
20260903045406 81 200 1.0 1.0 0.00 0.00 0.00 75 1015.2
20260903044903 81 206 1.0 1.0 0.00 0.00 0.00 75 1015.2
20260903044403 81 198 0.0 2.0 0.00 0.00 0.00 74 1015.5
20260903043901 81 207 1.0 2.0 0.00 0.00 0.00 74 1015.4
20260903043401 81 199 2.0 3.0 0.00 0.00 0.00 74 1015.5
20260903042859 82 251 2.0 3.0 0.00 0.00 0.00 74 1015.5
20260903042354 82 90 0.0 2.0 0.00 0.00 0.00 74 1015.6
20260903041850 82 128 2.0 3.0 0.00 0.00 0.00 75 1015.5
20260903041346 82 211 1.0 3.0 0.00 0.00 0.00 75 1015.5
20260903040842 82 178 1.0 2.0 0.00 0.00 0.00 75 1015.4
20260903040341 82 178 2.0 4.0 0.00 0.00 0.00 75 1015.4
20260903035837 82 232 0.0 2.0 0.00 0.00 0.00 74 1015.7
20260903035332 82 226 1.0 3.0 0.00 0.00 0.00 74 1015.9
20260903034827 82 215 1.0 6.0 0.00 0.00 0.00 74 1015.8
20260903034322 82 235 0.0 2.0 0.00 0.00 0.00 74 1015.7
20260903033817 82 171 1.0 4.0 0.00 0.00 0.00 74 1015.9
20260903033313 82 183 2.0 4.0 0.00 0.00 0.00 74 1015.9
20260903032807 82 345 1.0 8.0 0.00 0.00 0.00 73 1015.8